TimeMDT,TemperatureF,Dew PointF,Humidity,Sea Level PressureIn,VisibilityMPH,Wind Direction,Wind SpeedMPH,Gust SpeedMPH,PrecipitationIn,Events,Conditions,WindDirDegrees,DateUTC
12:04 AM,46.4,26.6,46,30.17,10.0,NNE,9.2,-,N/A,,Scattered Clouds,20,2012-10-05 06:04:00
12:24 AM,46.4,26.6,46,30.17,10.0,WNW,4.6,-,N/A,,Mostly Cloudy,290,2012-10-05 06:24:00
12:44 AM,48.2,28.4,46,30.18,10.0,NW,11.5,-,N/A,,Mostly Cloudy,320,2012-10-05 06:44:00
1:14 AM,50.0,32.0,50,30.17,10.0,North,4.6,-,N/A,,Clear,360,2012-10-05 07:14:00
1:26 AM,50.0,32.0,50,30.17,10.0,Calm,Calm,-,N/A,,Clear,0,2012-10-05 07:26:00
1:45 AM,50.0,32.0,50,30.17,10.0,NW,3.5,-,N/A,,Clear,320,2012-10-05 07:45:00
2:05 AM,51.8,32.0,47,30.17,10.0,Calm,Calm,-,N/A,,Scattered Clouds,0,2012-10-05 08:05:00
2:25 AM,50.0,32.0,50,30.16,10.0,Calm,Calm,-,N/A,,Scattered Clouds,0,2012-10-05 08:25:00
2:46 AM,44.6,30.2,57,30.15,10.0,NNW,3.5,-,N/A,,Clear,340,2012-10-05 08:46:00
3:05 AM,44.6,30.2,57,30.14,10.0,Calm,Calm,-,N/A,,Clear,0,2012-10-05 09:05:00
3:25 AM,44.6,30.2,57,30.14,10.0,NW,8.1,-,N/A,,Clear,310,2012-10-05 09:25:00
3:50 AM,44.6,32.0,61,30.13,10.0,NNW,8.1,-,N/A,,Scattered Clouds,330,2012-10-05 09:50:00
4:15 AM,41.0,30.2,65,30.14,10.0,Calm,Calm,-,N/A,,Scattered Clouds,0,2012-10-05 10:15:00
4:25 AM,42.8,30.2,61,30.14,10.0,East,3.5,-,N/A,,Mostly Cloudy,100,2012-10-05 10:25:00
4:46 AM,41.0,30.2,65,30.12,10.0,Calm,Calm,-,N/A,,Scattered Clouds,0,2012-10-05 10:46:00
5:04 AM,41.0,30.2,65,30.12,10.0,NE,3.5,-,N/A,,Clear,40,2012-10-05 11:04:00
5:27 AM,37.4,28.4,70,30.12,10.0,East,4.6,-,N/A,,Clear,80,2012-10-05 11:27:00
5:53 AM,37.4,28.4,70,30.14,10.0,NNW,6.9,-,N/A,,Clear,330,2012-10-05 11:53:00
6:12 AM,39.2,28.4,65,30.15,10.0,NNW,6.9,-,N/A,,Clear,340,2012-10-05 12:12:00
6:27 AM,37.4,30.2,75,30.15,10.0,NW,6.9,-,N/A,,Clear,320,2012-10-05 12:27:00
6:55 AM,37.4,26.6,65,30.16,10.0,NNW,3.5,-,N/A,,Clear,330,2012-10-05 12:55:00
7:13 AM,37.4,28.4,70,30.17,10.0,North,4.6,-,N/A,,Clear,10,2012-10-05 13:13:00
7:30 AM,39.2,26.6,61,30.17,10.0,Calm,Calm,-,N/A,,Clear,0,2012-10-05 13:30:00
7:55 AM,53.6,23.0,30,30.17,10.0,NW,20.7,28.8,N/A,,Clear,320,2012-10-05 13:55:00
8:15 AM,55.4,21.2,26,30.17,10.0,WNW,15.0,23.0,N/A,,Clear,300,2012-10-05 14:15:00
8:35 AM,59.0,21.2,23,30.17,10.0,WNW,13.8,21.9,N/A,,Clear,300,2012-10-05 14:35:00
8:46 AM,59.0,21.2,23,30.17,10.0,NW,13.8,17.3,N/A,,Clear,310,2012-10-05 14:46:00
9:15 AM,60.8,19.4,20,30.17,10.0,NW,20.7,31.1,N/A,,Clear,320,2012-10-05 15:15:00
9:35 AM,60.8,17.6,19,30.17,10.0,NNW,23.0,33.4,N/A,,Clear,330,2012-10-05 15:35:00
9:55 AM,60.8,17.6,19,30.17,10.0,NW,27.6,33.4,N/A,,Clear,320,2012-10-05 15:55:00
10:15 AM,62.6,17.6,18,30.17,10.0,NW,24.2,38.0,N/A,,Clear,310,2012-10-05 16:15:00
10:30 AM,62.6,15.8,16,30.17,10.0,NW,24.2,34.5,N/A,,Clear,320,2012-10-05 16:30:00
10:55 AM,62.6,15.8,16,30.17,10.0,WNW,24.2,39.1,N/A,,Clear,300,2012-10-05 16:55:00
11:12 AM,64.4,15.8,15,30.17,10.0,NW,21.9,34.5,N/A,,Clear,320,2012-10-05 17:12:00
11:35 AM,64.4,14.0,14,30.16,10.0,NW,27.6,35.7,N/A,,Clear,320,2012-10-05 17:35:00
11:52 AM,66.2,14.0,13,30.15,10.0,NW,31.1,38.0,N/A,,Clear,310,2012-10-05 17:52:00
12:35 PM,66.2,12.2,12,30.14,10.0,NW,23.0,34.5,N/A,,Clear,320,2012-10-05 18:35:00
12:55 PM,68.0,12.2,12,30.13,10.0,NW,21.9,33.4,N/A,,Clear,320,2012-10-05 18:55:00
1:11 PM,68.0,12.2,12,30.12,10.0,NNW,16.1,32.2,N/A,,Clear,330,2012-10-05 19:11:00
1:35 PM,68.0,12.2,12,30.11,10.0,NW,18.4,33.4,N/A,,Clear,320,2012-10-05 19:35:00
1:55 PM,69.8,12.2,11,30.10,10.0,NNW,19.6,29.9,N/A,,Clear,340,2012-10-05 19:55:00
2:15 PM,71.6,12.2,10,30.09,10.0,NW,21.9,29.9,N/A,,Clear,320,2012-10-05 20:15:00
2:25 PM,71.6,12.2,10,30.09,10.0,NNW,17.3,29.9,N/A,,Clear,340,2012-10-05 20:25:00
2:50 PM,71.6,10.4,9,30.08,10.0,NW,18.4,31.1,N/A,,Clear,310,2012-10-05 20:50:00
3:15 PM,71.6,10.4,9,30.07,10.0,NW,16.1,28.8,N/A,,Clear,310,2012-10-05 21:15:00
3:34 PM,71.6,8.6,9,30.07,10.0,NNW,21.9,34.5,N/A,,Clear,330,2012-10-05 21:34:00
3:45 PM,69.8,8.6,9,30.07,10.0,NNW,24.2,31.1,N/A,,Clear,340,2012-10-05 21:45:00
4:06 PM,68.0,6.8,9,30.07,10.0,NNW,24.2,34.5,N/A,,Clear,340,2012-10-05 22:06:00
4:27 PM,66.2,6.8,10,30.07,10.0,NNW,27.6,31.1,N/A,,Clear,340,2012-10-05 22:27:00
4:46 PM,66.2,6.8,10,30.07,10.0,NNW,23.0,31.1,N/A,,Clear,330,2012-10-05 22:46:00
5:13 PM,64.4,6.8,10,30.07,10.0,NNW,24.2,29.9,N/A,,Clear,330,2012-10-05 23:13:00
5:32 PM,62.6,5.0,10,30.08,10.0,NNW,23.0,28.8,N/A,,Clear,340,2012-10-05 23:32:00
5:53 PM,62.6,6.8,11,30.08,10.0,NNW,17.3,27.6,N/A,,Clear,340,2012-10-05 23:53:00
6:07 PM,62.6,6.8,11,30.08,10.0,NNW,12.7,24.2,N/A,,Clear,340,2012-10-06 00:07:00
6:25 PM,60.8,6.8,12,30.09,10.0,NNW,19.6,25.3,N/A,,Clear,340,2012-10-06 00:25:00
6:52 PM,59.0,8.6,14,30.09,10.0,NNW,13.8,-,N/A,,Clear,340,2012-10-06 00:52:00
7:13 PM,59.0,10.4,15,30.09,10.0,NNW,16.1,21.9,N/A,,Clear,330,2012-10-06 01:13:00
7:32 PM,59.0,12.2,16,30.10,10.0,NNW,17.3,27.6,N/A,,Clear,330,2012-10-06 01:32:00
7:46 PM,57.2,12.2,17,30.10,10.0,NNW,17.3,21.9,N/A,,Clear,330,2012-10-06 01:46:00
8:15 PM,55.4,12.2,18,30.11,10.0,NNW,17.3,-,N/A,,Clear,330,2012-10-06 02:15:00
8:35 PM,53.6,14.0,21,30.12,10.0,NNW,17.3,-,N/A,,Clear,330,2012-10-06 02:35:00
8:46 PM,53.6,12.2,19,30.13,10.0,NNW,13.8,-,N/A,,Clear,330,2012-10-06 02:46:00
9:25 PM,50.0,12.2,22,30.13,10.0,NNW,10.4,-,N/A,,Clear,330,2012-10-06 03:25:00
9:53 PM,50.0,12.2,22,30.13,10.0,NNW,9.2,-,N/A,,Clear,330,2012-10-06 03:53:00
10:04 PM,50.0,12.2,22,30.13,10.0,NNW,9.2,-,N/A,,Clear,330,2012-10-06 04:04:00
10:35 PM,46.4,10.4,23,30.12,10.0,NNW,10.4,-,N/A,,Clear,340,2012-10-06 04:35:00
10:49 PM,46.4,10.4,23,30.12,10.0,NNW,10.4,-,N/A,,Clear,330,2012-10-06 04:49:00
11:04 PM,46.4,10.4,23,30.12,10.0,NNW,10.4,-,N/A,,Clear,340,2012-10-06 05:04:00
11:31 PM,46.4,12.2,25,30.11,10.0,North,10.4,-,N/A,,Clear,350,2012-10-06 05:31:00
11:55 PM,46.4,12.2,25,30.11,10.0,NNW,10.4,-,N/A,,Clear,340,2012-10-06 05:55:00